FW9262 Weather Reports


Display with metric or nautical units.
time (UTC)temp
F
wind
direction
speed
MPH
gust
MPH
rain 1hr
in
rain 24hr
in
rain mn
in
humidity
%
barometer
mb
20260905090519 66 345 0.0 0.0 0.00 0.00 0.00 92 1016.0
20260905090014 66 348 0.0 1.0 0.00 0.00 0.00 92 1016.0
20260905085512 66 342 0.0 0.0 0.00 0.00 0.00 92 1016.0
20260905085009 66 333 0.0 0.0 0.00 0.00 0.00 92 1016.0
20260905084503 66 343 0.0 1.0 0.00 0.00 0.00 92 1016.0
20260905083957 66 351 0.0 1.0 0.00 0.00 0.00 92 1016.0
20260905083453 66 346 0.0 0.0 0.00 0.00 0.00 92 1016.0
20260905082949 67 345 0.0 0.0 0.00 0.00 0.00 92 1016.3
20260905082444 67 354 0.0 0.0 0.00 0.00 0.00 92 1016.3
20260905081939 67 4 0.0 0.0 0.00 0.00 0.00 92 1016.0
20260905081434 67 4 1.0 2.0 0.00 0.00 0.00 92 1016.3
20260905080933 67 344 0.0 2.0 0.00 0.00 0.00 92 1016.0
20260905080428 67 28 1.0 2.0 0.00 0.00 0.00 92 1016.0
20260905075927 67 24 1.0 1.0 0.00 0.00 0.00 92 1016.3
20260905075421 67 8 1.0 2.0 0.00 0.00 0.00 92 1016.0
20260905074920 67 12 1.0 1.0 0.00 0.00 0.00 92 1016.3
20260905074416 67 6 1.0 1.0 0.00 0.00 0.00 92 1016.0
20260905073912 67 15 1.0 1.0 0.00 0.00 0.00 93 1016.0
20260905073407 67 3 0.0 1.0 0.00 0.00 0.00 92 1016.0
20260905072902 67 47 1.0 2.0 0.00 0.00 0.00 93 1016.3
20260905072356 68 354 1.0 2.0 0.00 0.00 0.00 93 1016.3
20260905071852 68 38 1.0 2.0 0.00 0.00 0.00 93 1016.0
20260905071349 68 358 1.0 2.0 0.00 0.00 0.00 93 1016.0
20260905070843 68 11 1.0 2.0 0.00 0.00 0.00 93 1016.0
20260905070340 68 26 2.0 2.0 0.00 0.00 0.00 93 1016.0
20260905065839 68 351 0.0 2.0 0.00 0.00 0.00 93 1016.0
20260905065337 68 13 1.0 2.0 0.00 0.00 0.00 93 1016.0
20260905064832 67 356 0.0 2.0 0.00 0.00 0.00 93 1016.0
20260905064328 68 14 1.0 1.0 0.00 0.00 0.00 93 1016.0
20260905063826 68 350 0.0 1.0 0.00 0.00 0.00 93 1016.0
20260905063323 67 328 0.0 0.0 0.00 0.00 0.00 93 1016.0
20260905062819 68 351 0.0 0.0 0.00 0.00 0.00 93 1016.3
20260905062319 68 344 0.0 0.0 0.00 0.00 0.00 93 1016.0
20260905061813 68 346 0.0 0.0 0.00 0.00 0.00 92 1016.0
20260905061308 68 341 0.0 0.0 0.00 0.00 0.00 92 1016.0
20260905060802 68 345 0.0 0.0 0.00 0.00 0.00 92 1016.0
20260905060259 68 1 0.0 0.0 0.00 0.00 0.00 92 1016.0
20260905055758 68 2 0.0 0.0 0.00 0.00 0.00 92 1016.0
20260905055252 68 0 0.0 0.0 0.00 0.00 0.00 92 1016.0
20260905054748 68 356 0.0 0.0 0.00 0.00 0.00 92 1016.0
20260905054245 68 327 0.0 0.0 0.00 0.00 0.00 92 1016.0
20260905053743 68 350 0.0 0.0 0.00 0.00 0.00 91 1016.0
20260905053239 67 348 0.0 0.0 0.00 0.00 0.00 91 1016.0
20260905052738 68 345 0.0 0.0 0.00 0.00 0.00 91 1015.6
20260905052233 68 340 0.0 0.0 0.00 0.00 0.00 91 1016.0
20260905051733 68 340 0.0 0.0 0.00 0.00 0.00 91 1016.0
20260905051230 68 1 0.0 0.0 0.00 0.00 0.00 91 1016.0
20260905050726 68 357 0.0 0.0 0.00 0.00 0.00 91 1016.0
20260905050222 68 352 0.0 0.0 0.00 0.00 0.00 90 1016.0
20260905045722 68 347 0.0 0.0 0.00 0.00 0.00 90 1016.0
20260905045217 68 23 0.0 0.0 0.00 0.00 0.00 90 1016.0
20260905044712 68 342 0.0 0.0 0.00 0.00 0.00 90 1016.0
20260905044207 69 337 0.0 0.0 0.00 0.00 0.00 90 1016.0
20260905043706 68 341 0.0 0.0 0.00 0.00 0.00 89 1015.6
20260905043200 69 340 0.0 0.0 0.00 0.00 0.00 89 1015.6
20260905042655 69 337 0.0 0.0 0.00 0.00 0.00 89 1015.6
20260905042154 69 340 0.0 0.0 0.00 0.00 0.00 88 1015.3
20260905041650 69 343 0.0 0.0 0.00 0.00 0.00 88 1015.6
20260905041145 69 347 0.0 0.0 0.00 0.00 0.00 88 1015.3
20260905040640 69 336 0.0 0.0 0.00 0.00 0.00 88 1015.6
20260905040139 69 333 0.0 0.0 0.00 0.00 0.00 88 1015.3
20260905035634 70 338 0.0 0.0 0.00 0.00 0.00 88 1015.3
20260905035131 70 331 0.0 1.0 0.00 0.00 0.00 88 1015.3
20260905034626 70 315 0.0 2.0 0.00 0.00 0.00 87 1014.9
20260905034126 70 287 1.0 2.0 0.00 0.00 0.00 87 1014.9
20260905033620 70 345 0.0 1.0 0.00 0.00 0.00 86 1015.3
20260905033116 70 327 0.0 2.0 0.00 0.00 0.00 86 1014.9
20260905032616 70 329 0.0 1.0 0.00 0.00 0.00 86 1014.9
20260905032115 70 340 0.0 1.0 0.00 0.00 0.00 86 1014.9
20260905031611 70 333 0.0 1.0 0.00 0.00 0.00 85 1014.9
20260905031111 70 321 1.0 2.0 0.00 0.00 0.00 85 1014.9
20260905030606 70 320 0.0 1.0 0.00 0.00 0.00 85 1014.6
20260905025557 71 290 1.0 3.0 0.00 0.00 0.00 84 1014.9
20260905025053 70 303 1.0 3.0 0.00 0.00 0.00 83 1014.9
20260905024548 70 43 1.0 2.0 0.00 0.00 0.00 83 1014.9
20260905024043 70 291 1.0 2.0 0.00 0.00 0.00 83 1014.9
20260905023538 71 300 2.0 3.0 0.00 0.00 0.00 83 1014.6
20260905023033 71 281 1.0 3.0 0.00 0.00 0.00 82 1014.6
20260905022532 71 341 0.0 2.0 0.00 0.00 0.00 82 1014.6
20260905022028 71 329 1.0 1.0 0.00 0.00 0.00 82 1014.6
20260905021527 71 294 2.0 2.0 0.00 0.00 0.00 82 1014.9
20260905021023 71 301 3.0 4.0 0.00 0.00 0.00 81 1014.9
20260905020522 71 342 0.0 2.0 0.00 0.00 0.00 81 1014.9
20260905020018 71 268 2.0 3.0 0.00 0.00 0.00 81 1014.9
20260905015515 72 316 1.0 3.0 0.00 0.00 0.00 80 1014.9
20260905015016 72 297 1.0 4.0 0.00 0.00 0.00 80 1014.9
20260905014510 72 296 2.0 3.0 0.00 0.00 0.00 79 1014.9
20260905014006 73 265 3.0 4.0 0.00 0.00 0.00 78 1014.9
20260905013502 73 321 1.0 1.0 0.00 0.00 0.00 77 1014.9
20260905012957 73 333 2.0 2.0 0.00 0.00 0.00 76 1014.9
20260905012452 73 305 1.0 3.0 0.00 0.00 0.00 77 1015.3
20260905011949 73 279 2.0 4.0 0.00 0.00 0.00 77 1014.9
20260905011444 73 212 2.0 4.0 0.00 0.00 0.00 77 1015.3
20260905010940 73 283 2.0 6.0 0.00 0.00 0.00 77 1014.9
20260905010435 73 335 2.0 4.0 0.00 0.00 0.00 77 1014.9
20260905005930 73 210 2.0 6.0 0.00 0.00 0.00 77 1014.9
20260905005426 74 305 2.0 6.0 0.00 0.00 0.00 75 1015.3
20260905004926 74 247 2.0 6.0 0.00 0.00 0.00 74 1015.3
20260905004421 75 203 2.0 2.0 0.00 0.00 0.00 73 1015.3
20260905003917 75 268 2.0 6.0 0.00 0.00 0.00 73 1015.3
20260905003412 75 257 3.0 7.0 0.00 0.00 0.00 73 1015.3
20260905002908 75 310 0.0 4.0 0.00 0.00 0.00 74 1015.3
20260905002408 75 258 4.0 6.0 0.00 0.00 0.00 72 1015.3
20260905001907 76 152 3.0 4.0 0.00 0.00 0.00 70 1015.3
20260905001402 77 291 2.0 4.0 0.00 0.00 0.00 69 1015.3
20260905000857 78 294 2.0 4.0 0.00 0.00 0.00 68 1015.3
20260905000355 77 336 1.0 3.0 0.00 0.00 0.00 69 1014.9
20260904235848 77 297 2.0 6.0 0.00 0.00 0.00 70 1014.9
20260904235343 77 291 3.0 6.0 0.00 0.00 0.00 70 1014.9
20260904234838 77 275 2.0 4.0 0.00 0.00 0.00 69 1014.9
20260904234333 77 320 2.0 4.0 0.00 0.00 0.00 68 1014.9
20260904233829 78 200 1.0 3.0 0.00 0.00 0.00 68 1015.3
20260904233324 77 344 0.0 3.0 0.00 0.00 0.00 68 1015.3
20260904232821 77 296 4.0 7.0 0.00 0.00 0.00 69 1014.9
20260904232317 77 288 2.0 7.0 0.00 0.00 0.00 69 1014.9
20260904231813 79 290 3.0 3.0 0.00 0.00 0.00 66 1015.3
20260904231307 78 325 1.0 3.0 0.00 0.00 0.00 68 1014.9
20260904230803 78 203 4.0 7.0 0.00 0.00 0.00 67 1015.3
20260904230301 78 287 2.0 7.0 0.00 0.00 0.00 68 1015.3
20260904225756 78 263 1.0 7.0 0.00 0.00 0.00 67 1015.3
20260904225249 78 218 3.0 4.0 0.00 0.00 0.00 68 1015.3
20260904224749 77 336 2.0 6.0 0.00 0.00 0.00 69 1015.3
20260904224244 78 342 3.0 7.0 0.00 0.00 0.00 68 1015.3
20260904223743 77 253 2.0 3.0 0.00 0.00 0.00 69 1015.6
20260904223239 77 235 3.0 6.0 0.00 0.00 0.00 68 1015.6
20260904222735 78 213 3.0 4.0 0.00 0.00 0.00 68 1015.3
20260904222230 78 292 3.0 7.0 0.00 0.00 0.00 67 1015.3
20260904221729 78 233 2.0 4.0 0.00 0.00 0.00 68 1015.6
20260904221224 78 177 4.0 7.0 0.00 0.00 0.00 67 1015.6
20260904220725 77 303 1.0 4.0 0.00 0.00 0.00 67 1015.6
20260904220219 78 327 3.0 4.0 0.00 0.00 0.00 67 1015.6
20260904215719 78 245 2.0 6.0 0.00 0.00 0.00 67 1015.6
20260904215215 79 228 3.0 6.0 0.00 0.00 0.00 65 1015.6
20260904214710 78 243 3.0 4.0 0.00 0.00 0.00 66 1015.6
20260904214206 78 277 3.0 4.0 0.00 0.00 0.00 65 1015.3
20260904213703 78 285 3.0 6.0 0.00 0.00 0.00 65 1015.6
20260904213155 78 257 2.0 6.0 0.00 0.00 0.00 64 1015.6
20260904212655 78 240 3.0 7.0 0.00 0.00 0.00 65 1015.6
20260904212150 78 247 3.0 7.0 0.00 0.00 0.00 64 1016.0
20260904211644 78 247 3.0 4.0 0.00 0.00 0.00 64 1016.0
20260904211139 78 240 2.0 6.0 0.00 0.00 0.00 66 1016.0
20260904210639 78 300 4.0 7.0 0.00 0.00 0.00 66 1016.0
20260904210135 77 309 2.0 7.0 0.00 0.00 0.00 67 1015.6
20260904205631 78 351 4.0 4.0 0.00 0.00 0.00 65 1016.0
20260904205127 78 234 4.0 6.0 0.00 0.00 0.00 65 1016.0
20260904204622 78 327 2.0 8.0 0.00 0.00 0.00 67 1016.0
20260904204119 78 305 2.0 6.0 0.00 0.00 0.00 66 1015.6
20260904203614 79 301 1.0 4.0 0.00 0.00 0.00 66 1015.6
20260904203111 78 188 2.0 2.0 0.00 0.00 0.00 67 1016.0
20260904202606 77 246 3.0 4.0 0.00 0.00 0.00 67 1016.0
20260904202103 77 250 5.0 8.0 0.00 0.00 0.00 68 1016.0
20260904201602 77 235 4.0 7.0 0.00 0.00 0.00 67 1016.0
20260904201057 78 289 2.0 6.0 0.00 0.00 0.00 66 1016.0
20260904200556 78 301 4.0 8.0 0.00 0.00 0.00 67 1016.0
20260904200051 78 315 2.0 7.0 0.00 0.00 0.00 65 1016.0
20260904195550 77 330 1.0 7.0 0.00 0.00 0.00 66 1016.3
20260904195044 78 305 4.0 6.0 0.00 0.00 0.00 65 1016.0
20260904194538 79 272 3.0 8.0 0.00 0.00 0.00 64 1016.0
20260904194033 78 299 3.0 4.0 0.00 0.00 0.00 65 1016.0
20260904193528 77 229 2.0 7.0 0.00 0.00 0.00 66 1016.3
20260904193025 78 172 3.0 6.0 0.00 0.00 0.00 66 1016.3
20260904192524 78 281 1.0 2.0 0.00 0.00 0.00 65 1016.3
20260904192020 78 21 1.0 4.0 0.00 0.00 0.00 64 1016.3
20260904191516 78 283 1.0 6.0 0.00 0.00 0.00 64 1016.3
20260904191013 78 214 2.0 4.0 0.00 0.00 0.00 64 1016.6
20260904190508 79 293 1.0 2.0 0.00 0.00 0.00 63 1016.6
20260904190004 81 273 4.0 6.0 0.00 0.00 0.00 59 1016.6
20260904185500 79 315 3.0 4.0 0.00 0.00 0.00 63 1017.0
20260904184955 78 273 1.0 3.0 0.00 0.00 0.00 62 1016.6
20260904184454 79 262 4.0 6.0 0.00 0.00 0.00 59 1016.6
20260904183950 79 324 2.0 3.0 0.00 0.00 0.00 61 1016.6
20260904183445 80 251 4.0 6.0 0.00 0.00 0.00 59 1017.0
20260904182940 80 348 2.0 4.0 0.00 0.00 0.00 59 1017.0
20260904182436 81 318 0.0 2.0 0.00 0.00 0.00 60 1016.6
20260904181936 80 136 2.0 3.0 0.00 0.00 0.00 59 1016.6
20260904181431 78 341 1.0 3.0 0.00 0.00 0.00 63 1016.6
20260904180926 78 308 2.0 2.0 0.00 0.00 0.00 63 1017.0
20260904180421 77 210 1.0 3.0 0.00 0.00 0.00 63 1017.0
20260904175921 76 248 2.0 3.0 0.00 0.00 0.00 65 1017.0
20260904175419 76 282 1.0 4.0 0.00 0.00 0.00 66 1017.0
20260904174914 76 260 2.0 6.0 0.00 0.00 0.00 65 1017.0
20260904174409 76 211 1.0 3.0 0.00 0.00 0.00 67 1017.0
20260904173906 76 263 4.0 4.0 0.00 0.00 0.00 66 1017.0
20260904173401 75 329 2.0 3.0 0.00 0.00 0.00 69 1017.0
20260904172856 74 245 2.0 2.0 0.00 0.00 0.00 70 1016.6
20260904172356 74 274 2.0 3.0 0.00 0.00 0.00 70 1017.0
20260904171851 75 281 3.0 4.0 0.00 0.00 0.00 69 1016.6
20260904171346 77 267 1.0 6.0 0.00 0.00 0.00 68 1016.6
20260904170842 77 271 0.0 3.0 0.00 0.00 0.00 68 1016.6
20260904170338 77 260 2.0 6.0 0.00 0.00 0.00 67 1016.6
20260904165833 76 342 0.0 0.0 0.00 0.00 0.00 66 1016.6
20260904165331 74 345 0.0 1.0 0.00 0.00 0.00 69 1016.6
20260904164827 76 338 1.0 3.0 0.00 0.00 0.00 67 1016.3
20260904164321 76 295 1.0 2.0 0.00 0.00 0.00 66 1016.6
20260904163817 76 272 1.0 3.0 0.00 0.00 0.00 66 1016.6
20260904163312 76 86 2.0 3.0 0.00 0.00 0.00 64 1016.6
20260904162811 76 76 1.0 2.0 0.00 0.00 0.00 66 1016.3
20260904162307 75 4 1.0 2.0 0.00 0.00 0.00 66 1016.3
20260904161802 74 347 0.0 2.0 0.00 0.00 0.00 68 1016.3
20260904161302 72 11 0.0 2.0 0.00 0.00 0.00 73 1016.3
20260904160757 73 201 1.0 2.0 0.00 0.00 0.00 72 1016.3
20260904160252 73 351 0.0 0.0 0.00 0.00 0.00 73 1016.3
20260904155747 73 350 1.0 3.0 0.00 0.00 0.00 73 1016.3
20260904155247 74 1 1.0 2.0 0.00 0.00 0.00 72 1016.3
20260904154745 73 346 0.0 3.0 0.00 0.00 0.00 74 1016.3
20260904154240 74 340 1.0 2.0 0.00 0.00 0.00 72 1016.3
20260904153736 75 0 1.0 3.0 0.00 0.00 0.00 73 1016.0
20260904153231 75 67 2.0 2.0 0.00 0.00 0.00 72 1016.3
20260904152727 74 352 1.0 2.0 0.00 0.00 0.00 72 1016.3
20260904152222 73 1 1.0 3.0 0.00 0.00 0.00 75 1016.3
20260904151717 72 46 1.0 2.0 0.00 0.00 0.00 77 1016.3
20260904151216 72 48 0.0 1.0 0.00 0.00 0.00 76 1016.3
20260904150712 72 63 1.0 3.0 0.00 0.00 0.00 76 1016.3
20260904150207 72 12 0.0 2.0 0.00 0.00 0.00 76 1016.0
20260904145705 72 32 1.0 2.0 0.00 0.00 0.00 76 1016.3
20260904145201 72 345 0.0 1.0 0.00 0.00 0.00 77 1016.0
20260904144656 71 8 2.0 2.0 0.00 0.00 0.00 78 1016.0
20260904144152 70 356 0.0 0.0 0.00 0.00 0.00 80 1016.0
20260904143647 70 8 0.0 0.0 0.00 0.00 0.00 81 1016.0
20260904143144 69 358 0.0 0.0 0.00 0.00 0.00 81 1016.0
20260904142640 69 358 0.0 1.0 0.00 0.00 0.00 82 1016.0
20260904142136 68 347 0.0 1.0 0.00 0.00 0.00 84 1015.6
20260904141630 68 15 0.0 0.0 0.00 0.00 0.00 88 1015.6
20260904141126 67 349 0.0 0.0 0.00 0.00 0.00 90 1015.6
20260904140621 66 350 0.0 0.0 0.00 0.00 0.00 92 1015.6
20260904140121 65 358 0.0 0.0 0.00 0.00 0.00 92 1015.6
20260904135615 64 346 0.0 0.0 0.00 0.00 0.00 92 1015.6
20260904135111 64 344 0.0 0.0 0.00 0.00 0.00 92 1015.3
20260904134606 64 348 0.0 0.0 0.00 0.00 0.00 92 1015.3
20260904134100 64 345 0.0 0.0 0.00 0.00 0.00 92 1015.3
20260904133555 63 343 0.0 0.0 0.00 0.00 0.00 92 1015.3
20260904133051 63 343 0.0 0.0 0.00 0.00 0.00 92 1015.3
20260904132550 63 337 0.0 0.0 0.00 0.00 0.00 92 1014.9
20260904132045 63 338 0.0 0.0 0.00 0.00 0.00 92 1015.3
20260904131545 63 337 0.0 0.0 0.00 0.00 0.00 92 1015.3
20260904131041 63 0 0.0 1.0 0.00 0.00 0.00 92 1015.3
20260904130540 63 343 0.0 0.0 0.00 0.00 0.00 92 1014.9
20260904130035 63 342 0.0 0.0 0.00 0.00 0.00 92 1015.3
20260904125532 63 342 0.0 0.0 0.00 0.00 0.00 92 1015.3
20260904125026 63 334 0.0 0.0 0.00 0.00 0.00 92 1015.3
20260904124522 63 330 0.0 0.0 0.00 0.00 0.00 92 1015.3
20260904124017 63 334 0.0 0.0 0.00 0.00 0.00 92 1015.3
20260904123517 63 334 0.0 0.0 0.00 0.00 0.00 92 1014.9
20260904123013 63 338 0.0 0.0 0.00 0.00 0.00 92 1015.3
20260904122507 63 339 0.0 0.0 0.00 0.00 0.00 92 1014.9
20260904122002 63 339 0.0 0.0 0.00 0.00 0.00 92 1014.9
20260904121458 63 338 0.0 0.0 0.00 0.00 0.00 92 1014.9
20260904120954 63 341 0.0 0.0 0.00 0.00 0.00 92 1014.9
20260904120449 63 341 0.0 0.0 0.00 0.00 0.00 92 1014.9
20260904115944 63 342 0.0 0.0 0.00 0.00 0.00 92 1014.9
20260904115440 63 334 0.0 0.0 0.00 0.00 0.00 92 1015.3
20260904114934 63 340 0.0 0.0 0.00 0.00 0.00 92 1014.9
20260904114434 63 337 0.0 0.0 0.00 0.00 0.00 92 1014.9
20260904113930 63 344 0.0 0.0 0.00 0.00 0.00 92 1014.9
20260904113428 63 344 0.0 0.0 0.00 0.00 0.00 92 1015.3
20260904112928 63 342 0.0 0.0 0.00 0.00 0.00 92 1014.9
20260904112424 62 341 0.0 0.0 0.00 0.00 0.00 91 1014.9
20260904111920 62 341 0.0 0.0 0.00 0.00 0.00 91 1014.9
20260904111414 62 343 0.0 0.0 0.00 0.00 0.00 91 1014.9
20260904110911 62 344 0.0 0.0 0.00 0.00 0.00 91 1014.9
20260904110409 63 340 0.0 0.0 0.00 0.00 0.00 91 1014.9
20260904105905 63 337 0.0 0.0 0.00 0.00 0.00 91 1014.9
20260904105400 63 333 0.0 0.0 0.00 0.00 0.00 91 1014.9
20260904104855 63 330 0.0 0.0 0.00 0.00 0.00 91 1014.9
20260904104349 63 337 0.0 0.0 0.00 0.00 0.00 91 1015.3
20260904103846 63 343 0.0 1.0 0.00 0.00 0.00 91 1014.9
20260904103341 63 340 0.0 1.0 0.00 0.00 0.00 91 1014.9
20260904102837 63 339 0.0 0.0 0.00 0.00 0.00 91 1014.9
20260904102332 63 335 0.0 0.0 0.00 0.00 0.00 91 1014.9
20260904101828 63 340 0.0 0.0 0.00 0.00 0.00 91 1014.9
20260904101324 63 354 0.0 0.0 0.00 0.00 0.00 91 1014.9
20260904100820 63 344 0.0 0.0 0.00 0.00 0.00 91 1014.9
20260904100315 64 342 0.0 0.0 0.00 0.00 0.00 91 1015.3
20260904095810 64 344 0.0 1.0 0.00 0.00 0.00 91 1014.9
20260904095306 64 352 0.0 0.0 0.00 0.00 0.00 91 1014.9
20260904094800 64 348 0.0 0.0 0.00 0.00 0.00 91 1014.9
20260904094254 64 343 0.0 0.0 0.00 0.00 0.00 91 1014.9
20260904093750 64 342 0.0 0.0 0.00 0.00 0.00 91 1014.9
20260904093245 64 344 0.0 0.0 0.00 0.00 0.00 91 1014.9
20260904092740 64 340 0.0 0.0 0.00 0.00 0.00 91 1014.9
20260904092237 64 26 0.0 0.0 0.00 0.00 0.00 91 1014.9
20260904091733 64 340 0.0 0.0 0.00 0.00 0.00 91 1014.9
20260904091227 63 345 0.0 0.0 0.00 0.00 0.00 91 1014.9